Wind_Speed
9 10 9 9 9 9 9 9 9 9 9 8 8 9 9 9 9 9 9 9 8 8 8 9 10 10 12 13 14 14 14 14 15 14 15 15 13 5 7 13 12 11 8 8 11 12 12 13 13 12 11 9 7 7 9 9 8 6 5 7 6 7 8 9 8 3 1 7 9 6 8 7 9 10 4 4 4 6 6 5 9 7 11 16 20 24 24 23
10 9 9 9 10 9 9 9 9 9 9 8 8 8 8 9 9 8 8 8 8 8 9 9 10 10 12 13 13 13 15 15 15 17 15 14 15 11 9 10 11 11 9 10 13 13 11 10 11 12 9 7 7 8 9 8 8 7 6 6 7 9 9 9 7 8 5 5 7 5 7 7 8 12 7 6 10 8 7 8 9 9 13 15 18 21 20 21
10 10 9 9 9 9 9 9 9 9 8 9 9 8 8 8 8 8 8 8 8 8 9 9 10 11 12 12 13 12 13 14 16 16 13 12 13 11 8 8 9 10 11 13 13 13 12 11 11 11 9 8 8 9 10 8 8 8 6 7 8 8 10 9 3 7 7 5 3 4 5 7 8 10 7 9 12 9 8 8 11 12 13 13 16 18 18 19
10 9 9 9 9 9 9 9 9 9 9 9 9 8 8 8 8 8 8 8 8 9 9 9 10 11 12 12 11 10 11 13 9 6 12 12 8 7 5 5 7 8 11 12 12 13 13 13 11 10 10 8 8 10 10 7 7 7 7 10 8 5 9 5 1 1 3 5 2 3 3 6 9 8 7 9 11 9 10 11 14 13 15 15 15 16 15 15
10 10 10 10 10 9 9 9 9 9 10 9 9 9 9 9 8 8 8 9 9 9 8 9 10 11 12 12 10 9 9 6 2 10 13 11 8 7 6 7 8 8 9 11 13 13 13 14 11 10 9 8 9 8 9 9 7 6 9 14 12 8 7 3 2 2 0 3 2 4 5 4 7 6 7 10 10 4 2 6 14 13 16 16 14 14 13 12
10 10 10 10 10 10 9 9 10 10 10 9 9 9 9 9 8 8 8 8 8 8 8 8 10 11 12 11 10 8 7 2 6 10 11 10 9 7 6 8 9 10 10 11 14 12 10 11 10 9 8 8 11 9 9 9 9 7 8 13 12 8 6 5 4 3 2 5 5 3 5 5 7 6 5 9 6 9 10 6 7 8 15 17 14 11 10 11
11 10 10 10 10 10 10 10 10 10 10 9 10 9 9 9 9 8 8 7 7 7 7 8 10 12 12 11 8 7 9 7 5 13 12 10 7 5 5 7 8 10 11 12 13 11 9 10 9 9 8 8 11 10 10 10 10 9 7 9 8 7 5 3 4 2 3 9 6 0 4 4 7 6 6 10 5 11 9 8 9 9 15 16 12 10 9 10
10 10 10 10 10 10 10 10 10 10 9 9 10 9 10 9 9 8 7 7 7 7 8 8 10 11 11 9 6 7 10 7 10 15 12 9 6 5 4 6 9 11 12 13 12 10 8 9 10 8 9 10 9 10 11 11 11 10 9 9 4 5 4 2 2 2 4 6 3 2 2 3 5 4 5 10 7 9 9 6 6 7 13 13 10 10 9 9
11 10 11 10 10 10 10 9 9 10 10 10 10 10 10 9 8 7 7 7 6 7 8 9 11 9 8 6 8 6 3 7 14 13 11 9 6 6 6 7 11 12 13 13 11 10 8 8 10 9 10 10 8 9 8 8 8 7 11 11 3 4 5 2 3 4 4 4 4 2 6 8 7 3 2 8 8 6 8 4 5 6 11 11 10 8 8 9
11 11 10 10 10 10 9 9 9 10 10 9 9 9 9 8 7 7 7 7 7 8 8 10 10 8 7 7 9 4 6 11 12 12 11 10 8 9 9 9 12 12 12 11 9 11 9 7 8 7 9 10 9 8 6 7 5 3 10 11 3 4 7 4 5 7 6 6 6 5 8 10 8 5 3 8 10 4 7 6 6 6 8 10 11 9 7 8
11 10 10 10 9 9 9 9 9 9 9 9 9 9 9 7 7 7 7 7 7 8 8 9 9 7 9 9 8 3 6 8 9 12 10 9 9 10 9 8 9 10 10 9 9 10 9 8 9 7 5 5 7 9 7 7 4 4 8 8 4 6 5 5 8 8 6 6 7 6 9 11 9 8 8 11 12 8 7 6 7 8 7 8 11 10 7 7
11 10 10 9 8 8 8 8 8 9 9 9 9 9 9 8 7 7 8 8 8 8 8 9 7 7 8 9 9 4 3 5 8 9 9 8 9 9 6 5 6 9 9 9 8 7 7 7 9 10 5 3 7 7 5 6 4 6 7 7 8 9 7 9 10 8 6 7 7 6 8 10 11 10 10 11 6 7 7 7 7 8 7 7 9 10 7 9
11 9 8 8 8 8 8 9 9 10 11 10 10 9 9 8 7 8 8 8 8 8 8 8 7 6 8 7 6 5 2 4 7 7 8 9 9 9 6 6 7 8 9 9 8 5 5 7 9 11 9 7 7 3 1 4 4 8 9 7 8 8 9 12 11 10 9 6 6 4 5 8 12 13 15 12 7 8 7 7 7 8 7 7 8 9 8 10
11 8 7 7 8 8 9 10 11 11 11 11 11 10 10 9 8 7 8 8 8 8 8 8 7 5 7 6 3 7 5 4 6 7 8 9 10 9 8 7 8 7 7 8 9 6 6 9 10 10 9 9 6 4 3 6 4 8 9 7 7 6 9 13 14 12 10 7 7 5 5 6 11 15 18 14 11 9 8 8 8 8 7 7 8 8 9 11
10 8 7 7 8 9 10 11 12 11 10 10 10 10 10 8 8 7 8 8 7 7 7 9 8 5 7 8 5 5 6 7 8 10 10 10 10 9 9 9 8 7 6 7 7 7 6 8 9 7 7 8 6 5 6 7 6 7 7 7 7 6 9 10 15 14 11 8 9 8 5 6 13 15 12 14 11 10 8 9 9 8 8 7 8 7 8 10
10 9 8 8 9 10 12 12 12 11 9 7 7 7 7 7 8 8 8 7 7 7 6 7 10 11 6 2 5 5 8 8 8 10 9 9 10 9 9 8 7 6 5 6 6 6 7 8 7 6 8 6 6 7 6 5 6 6 6 7 6 8 8 5 13 14 12 9 11 11 5 7 9 2 12 13 10 10 8 9 9 9 8 7 7 7 7 8
9 9 8 9 10 11 12 12 12 10 7 6 6 5 5 6 7 7 7 7 6 6 8 9 9 10 6 3 3 6 8 6 5 7 7 8 10 8 7 7 7 7 6 6 5 6 7 6 5 5 6 5 5 7 6 6 7 6 7 7 7 9 8 4 11 13 14 10 10 11 8 10 9 4 14 9 7 9 8 9 10 9 7 7 6 8 8 7
9 9 8 8 9 11 11 11 12 9 6 4 6 5 3 5 6 6 6 5 3 6 10 12 10 5 5 7 6 5 6 6 4 5 6 8 9 8 6 8 7 7 7 5 5 7 6 5 5 5 5 5 5 5 7 6 4 4 4 5 6 9 10 8 6 9 13 11 9 9 9 10 13 6 9 11 9 9 9 8 8 9 9 8 7 8 8 8
9 8 7 8 8 9 9 10 11 10 6 3 5 7 3 3 4 6 8 7 4 5 4 5 9 3 1 4 3 4 5 4 4 6 7 9 8 7 8 8 6 7 7 5 7 7 4 4 5 5 6 6 7 9 7 4 7 9 8 5 6 7 9 7 2 9 9 8 8 9 9 10 11 12 8 11 11 9 9 8 7 8 9 9 8 7 8 8
9 8 7 7 7 8 8 8 10 11 9 5 4 5 4 2 2 3 8 9 9 9 6 5 13 8 2 4 5 5 4 4 5 7 8 9 8 9 9 8 7 7 7 6 6 6 5 5 5 7 5 2 4 9 4 6 8 10 9 8 9 5 5 1 7 9 3 3 6 8 9 11 11 12 12 9 13 11 10 10 7 7 8 9 10 9 9 7
9 8 7 6 7 8 7 7 9 12 13 9 5 6 4 5 4 2 1 8 14 14 10 5 9 8 4 2 4 3 4 6 8 8 8 9 9 9 7 8 8 6 8 10 5 3 3 5 7 9 4 6 6 5 4 7 7 8 8 8 8 5 7 5 6 7 3 1 5 8 9 13 13 12 13 11 11 12 12 10 9 10 9 9 10 10 10 8
9 8 7 6 7 7 6 7 7 11 16 12 7 9 5 9 6 5 4 7 11 11 8 5 7 7 3 2 1 4 6 8 9 8 8 9 10 8 7 8 9 7 8 10 4 2 4 8 11 6 1 4 4 6 6 7 7 8 7 7 7 6 8 7 7 7 4 3 5 8 10 12 14 15 14 13 12 10 12 12 10 10 11 10 10 9 8 7
9 8 7 6 7 7 8 8 8 12 14 11 10 6 6 8 8 7 5 8 5 7 7 6 7 8 7 5 4 7 10 9 9 11 10 9 10 8 7 8 9 9 9 10 6 6 6 6 7 4 3 1 2 2 4 5 4 6 7 7 7 7 9 7 4 5 2 2 5 7 8 10 11 13 13 12 12 8 9 14 12 11 11 11 10 9 9 9
9 8 7 6 7 8 9 10 11 13 14 15 9 4 8 7 9 9 5 7 5 5 4 3 6 6 5 2 4 9 10 7 4 10 12 9 9 7 7 8 8 9 10 10 10 9 9 1 6 6 2 4 5 3 3 4 4 7 8 8 8 9 9 6 1 2 3 3 6 8 8 7 10 12 12 9 10 11 10 12 13 13 13 12 11 10 10 10
9 9 7 6 7 8 10 12 12 13 14 11 3 7 8 7 7 9 4 5 5 4 3 3 5 2 4 2 5 7 8 5 0 7 11 9 7 4 6 7 6 8 11 11 9 10 8 4 6 4 3 4 6 6 5 4 5 7 9 11 11 12 9 8 5 2 3 6 7 8 6 6 9 13 13 9 10 13 13 13 14 13 14 14 12 12 11 10
10 9 7 6 6 8 9 7 6 8 9 3 8 8 9 8 8 7 4 3 2 4 4 6 5 2 2 4 8 6 7 7 6 8 7 6 6 4 5 5 5 9 11 8 8 7 5 8 4 5 4 5 7 7 8 8 7 6 6 9 12 11 7 8 10 5 4 7 5 9 5 6 7 9 9 10 11 13 13 14 15 12 12 14 13 12 11 9
10 8 7 5 6 8 6 6 10 11 6 5 9 9 7 7 7 5 3 2 2 3 4 6 4 2 3 4 8 7 1 3 7 7 5 3 5 5 6 7 5 7 8 5 6 4 5 9 7 5 5 6 7 7 9 10 9 4 2 7 9 8 6 8 10 7 7 7 4 10 8 7 6 9 10 9 11 13 12 12 13 12 12 12 11 12 11 10
10 7 5 4 4 6 5 9 13 10 7 9 9 8 7 7 7 4 3 1 1 3 2 4 4 2 4 4 9 8 2 3 4 5 7 5 6 7 7 11 10 8 7 7 6 1 2 6 7 5 7 6 7 9 11 11 9 6 3 5 9 8 7 7 8 8 7 8 6 9 10 7 6 8 10 12 10 10 10 12 13 12 11 11 11 11 11 10
8 5 2 2 3 3 4 7 10 8 10 10 9 9 8 7 5 4 3 1 1 2 0 1 3 5 7 6 8 7 3 6 4 2 6 6 7 8 6 9 10 11 10 7 6 3 4 6 6 7 8 6 10 12 11 11 8 4 2 3 7 8 7 7 8 8 8 8 8 10 10 7 6 7 8 10 8 7 9 12 12 11 10 10 9 9 10 8
5 3 0 1 2 3 5 5 5 7 10 9 10 11 9 6 3 3 3 2 2 2 2 2 3 6 8 8 9 7 7 7 5 4 5 4 7 9 7 7 7 10 9 5 6 9 9 5 4 7 8 8 12 11 8 6 7 1 2 4 8 8 7 7 7 7 7 8 10 13 13 10 7 6 7 6 6 8 7 6 7 9 11 10 8 9 10 8
3 2 1 2 4 5 6 4 3 9 9 10 12 10 7 4 3 3 3 2 2 0 2 4 3 4 9 9 6 7 7 8 7 7 6 4 6 7 7 6 4 5 7 6 8 11 12 7 5 7 9 10 11 10 6 4 6 4 4 6 7 7 7 6 6 6 7 7 10 13 15 14 9 6 7 6 1 6 3 3 3 6 10 10 8 9 10 8
2 2 2 1 2 5 6 6 8 10 9 11 12 7 5 4 4 3 1 1 2 0 1 4 3 3 7 7 4 8 8 7 7 7 7 7 7 6 7 6 4 5 6 6 6 8 10 10 9 9 10 10 10 8 7 6 6 6 6 6 7 6 6 7 7 7 8 9 11 14 13 11 8 6 9 10 5 4 5 3 5 8 6 9 9 9 8 8
2 2 3 3 2 4 6 6 7 9 11 12 9 5 4 5 4 2 3 2 1 1 3 4 4 5 7 7 6 8 6 4 6 7 7 8 7 8 9 8 8 8 5 3 3 5 7 9 10 9 8 10 10 8 6 6 7 8 7 6 7 6 6 7 7 7 8 8 9 12 11 7 5 5 9 12 12 8 7 7 6 9 6 6 8 9 8 9
1 0 2 3 2 4 5 5 6 10 13 10 6 5 5 6 4 3 4 4 2 1 4 4 4 7 8 8 9 7 5 6 8 7 6 7 8 6 7 9 10 10 7 5 4 5 7 6 7 8 6 10 12 10 8 8 6 8 9 8 8 7 6 7 6 6 6 4 4 7 6 4 3 4 6 9 10 9 8 8 7 6 7 4 7 9 9 11
0 0 1 1 1 3 5 5 7 10 11 8 5 6 6 5 5 3 3 6 5 4 7 6 6 9 9 9 12 8 3 5 8 8 8 7 7 7 7 8 9 9 7 6 4 5 9 8 5 8 8 9 10 10 10 11 9 6 7 8 8 7 8 7 6 8 8 6 5 4 3 4 5 6 7 8 9 8 8 6 5 6 7 6 6 7 7 8
4 3 4 4 1 2 5 6 8 10 9 7 5 5 4 4 5 4 5 6 8 8 10 10 8 10 8 7 9 6 6 3 8 7 7 9 10 10 10 8 8 9 7 6 5 5 7 8 6 8 8 7 8 10 11 11 7 4 5 7 8 8 8 6 6 8 7 7 7 5 5 6 7 8 9 11 12 11 10 9 8 7 8 7 6 5 5 7
8 6 4 2 3 3 4 5 8 10 8 5 5 5 6 5 5 6 6 7 10 9 8 8 7 7 8 5 6 4 6 4 8 7 6 8 8 9 10 9 7 8 8 7 6 5 6 7 9 11 9 7 8 11 14 13 10 7 6 7 7 7 7 5 5 6 7 8 6 6 8 8 8 7 8 11 12 11 11 10 7 5 5 7 6 5 7 8
10 7 3 2 6 5 5 5 8 9 6 5 6 6 7 5 4 5 7 8 9 10 8 7 6 7 8 6 6 8 4 4 5 7 7 6 5 5 7 7 5 5 7 6 4 4 6 7 8 11 13 9 8 11 13 13 13 12 10 8 6 7 6 6 5 6 7 7 5 7 10 9 9 7 7 10 9 7 9 6 5 8 6 6 6 7 8 9
10 7 2 3 7 5 5 6 7 7 4 5 7 4 4 6 3 5 6 8 8 8 7 7 7 7 7 7 7 10 9 6 6 6 6 5 3 1 3 5 3 3 5 6 5 4 5 7 7 8 11 10 7 8 9 8 10 12 11 9 8 8 8 7 7 5 7 7 6 8 9 8 8 8 9 11 8 5 6 3 4 9 7 5 5 5 7 7
9 5 1 4 7 5 5 6 6 5 4 5 6 4 4 6 5 5 4 4 7 7 6 8 9 7 7 8 9 8 8 9 9 8 7 7 5 4 3 1 2 5 6 6 7 6 5 6 7 8 10 9 6 7 8 8 8 9 9 8 8 7 7 8 8 7 7 7 6 7 8 7 6 6 7 8 5 4 5 4 5 7 6 5 7 6 6 6
8 4 2 5 7 5 5 6 5 3 5 5 5 5 5 5 7 10 5 1 3 6 7 8 8 8 8 9 9 7 7 8 9 8 7 7 8 5 1 4 1 5 6 7 7 4 3 5 7 8 8 8 9 10 12 13 11 9 8 7 8 7 6 6 7 8 7 7 7 7 7 7 6 6 8 7 5 6 8 9 8 7 4 4 7 8 7 5
6 2 2 5 8 5 5 6 4 2 4 4 4 6 5 4 6 11 7 4 5 6 6 7 8 8 7 8 8 9 8 7 8 8 6 8 9 4 3 5 3 3 4 7 5 2 2 4 7 9 9 10 14 15 15 17 16 14 11 9 9 8 7 6 6 7 7 8 8 7 7 7 6 6 9 9 7 7 9 11 11 10 8 6 6 8 8 4
3 3 3 3 6 6 5 5 4 3 3 3 4 7 7 5 6 8 7 7 6 5 5 5 7 7 7 8 8 9 9 7 8 9 8 12 8 4 5 4 4 3 4 6 4 4 4 3 6 9 9 11 16 17 16 17 16 13 11 10 10 11 11 9 8 7 6 7 8 7 7 7 4 5 8 9 9 9 7 8 10 9 7 8 8 8 11 9
5 3 2 3 4 6 6 4 5 5 6 6 6 8 8 6 7 7 7 7 5 5 6 6 7 7 7 8 8 9 9 6 8 9 9 11 4 4 2 2 2 3 3 2 2 3 2 4 5 7 7 8 10 10 10 10 8 6 7 9 10 11 12 9 7 6 5 9 11 8 8 7 5 7 10 12 13 13 12 10 10 9 7 7 7 5 7 10
6 3 1 3 5 6 3 3 5 5 6 9 8 9 10 8 5 4 5 8 8 7 7 6 7 9 8 9 8 9 10 8 7 8 9 10 6 3 4 2 2 5 2 7 6 4 3 5 5 6 7 7 7 6 4 4 5 6 8 10 11 11 12 9 7 7 7 10 11 9 8 9 9 11 14 15 14 14 15 14 12 13 11 10 9 6 3 4
5 2 3 6 6 5 2 0 3 4 5 7 6 8 10 8 6 2 2 5 8 7 7 7 8 9 9 9 10 9 10 11 10 9 10 9 8 7 2 3 5 2 8 10 6 4 5 6 7 9 10 10 11 11 11 11 9 10 12 14 14 13 14 11 8 8 8 8 9 9 9 11 12 14 16 16 15 13 13 14 14 14 13 12 11 9 6 3
5 3 4 5 4 4 2 2 3 4 6 6 4 7 8 8 10 3 4 2 5 4 5 7 8 9 9 8 8 8 10 12 12 12 12 11 11 10 5 6 8 8 12 4 2 1 5 7 9 13 15 16 18 18 18 16 14 15 15 16 17 17 17 14 10 11 11 9 10 10 10 11 11 14 18 18 16 15 13 14 14 13 13 13 12 12 13 10
5 3 2 3 3 4 5 6 7 7 10 9 5 7 8 9 10 7 3 5 6 4 4 6 8 10 10 9 8 7 8 10 11 12 12 11 11 11 10 13 12 4 10 6 7 4 6 8 10 14 17 19 20 19 18 17 15 16 17 18 19 18 18 15 13 15 14 10 10 11 12 12 11 15 21 20 17 16 16 15 14 14 15 16 14 15 16 16
5 4 2 3 4 8 7 7 8 9 10 8 5 6 9 9 9 8 8 8 7 6 6 7 9 10 11 12 10 8 9 8 8 9 10 10 11 10 8 10 12 4 5 8 8 6 5 8 11 14 17 19 19 18 17 17 16 17 18 21 21 19 18 17 16 18 17 16 15 14 15 14 12 16 20 19 16 15 15 15 14 15 17 16 16 16 15 16
5 4 4 4 6 8 7 6 7 8 7 6 5 6 7 8 7 8 9 8 7 6 7 10 12 11 12 13 11 10 10 7 6 7 10 11 10 8 8 8 9 9 9 10 9 6 6 7 11 12 13 16 17 16 16 17 17 18 21 23 21 18 17 17 15 14 14 15 14 12 12 12 11 14 17 17 16 15 16 16 16 16 16 15 16 16 15 15
9 5 5 6 6 7 7 6 6 6 6 5 5 5 5 6 8 9 7 8 9 9 8 9 10 10 11 15 14 11 9 10 9 9 11 12 10 9 8 8 9 11 11 10 9 7 7 7 9 9 10 13 14 14 17 17 17 20 21 19 16 15 14 14 12 11 11 12 12 11 10 9 9 12 15 15 17 18 18 18 15 14 14 15 16 16 16 14
13 8 6 6 5 6 7 7 7 7 5 4 5 6 7 8 10 10 6 6 8 9 7 8 9 8 8 12 12 10 11 11 10 11 11 11 13 13 11 13 14 13 10 9 8 8 8 8 8 9 10 12 13 14 15 14 14 15 13 10 11 12 13 14 13 14 13 11 10 10 9 9 11 14 15 16 17 19 17 14 13 13 14 15 16 16 17 16
Wind_Direction
322 317 314 313 310 309 311 310 307 307 303 302 301 300 298 297 296 291 290 286 284 280 281 291 292 295 299 303 303 305 314 308 296 269 240 238 238 229 196 195 209 229 247 240 225 240 235 225 229 231 234 229 233 236 238 236 232 234 226 244 249 250 246 249 268 279 250 102 110 155 172 193 171 176 165 115 165 125 143 133 95 93 88 89 104 115 121 125
323 318 316 314 311 310 310 310 308 306 303 301 299 300 298 296 294 289 288 284 281 284 288 291 290 295 299 302 305 318 325 308 284 269 252 232 227 231 225 212 225 233 233 225 220 228 228 227 221 220 227 224 224 219 230 220 213 237 229 236 243 250 248 251 307 12 8 94 137 174 177 219 182 168 157 174 201 156 162 161 139 133 113 114 116 119 127 131
323 320 319 314 313 310 306 307 306 307 306 301 298 296 295 295 293 289 289 284 282 289 289 288 290 294 298 304 311 327 326 301 278 259 232 203 207 221 233 225 229 228 223 221 223 230 233 236 219 215 221 224 226 209 218 201 193 228 233 242 230 253 278 265 330 33 353 13 128 166 188 216 165 160 162 195 208 175 189 178 159 159 142 142 130 128 135 137
324 320 319 314 312 308 304 306 305 307 306 300 297 294 292 294 293 292 291 287 286 288 285 287 291 295 302 306 315 330 312 288 278 215 175 175 179 183 189 192 205 206 217 230 247 253 248 245 225 214 222 225 228 213 216 196 186 214 220 244 236 272 306 276 211 103 291 331 24 125 210 207 156 165 169 204 214 179 211 198 174 175 162 154 136 134 138 143
324 318 317 313 312 311 308 307 305 303 301 297 294 294 293 291 287 286 285 285 286 284 284 288 292 300 303 304 315 319 295 278 105 116 142 163 163 166 181 192 204 205 223 241 252 257 250 248 234 217 227 233 229 215 220 206 197 222 220 240 256 289 319 17 15 347 51 295 281 147 206 195 150 179 172 211 222 151 276 197 176 179 160 147 133 136 141 150
323 320 318 316 314 311 306 303 300 297 298 299 296 295 293 287 285 284 283 282 282 283 286 291 297 301 301 306 311 291 271 290 112 130 145 159 164 178 200 204 210 209 227 247 249 248 238 239 235 218 222 238 239 222 220 215 206 226 226 235 253 273 300 11 29 25 14 260 245 176 223 213 170 193 189 224 223 82 36 47 118 131 135 135 130 137 147 153
326 324 319 316 312 308 306 304 303 300 299 298 295 293 291 289 288 287 286 282 281 283 285 290 296 299 308 312 295 242 250 273 139 141 150 159 174 187 202 206 211 208 221 244 244 233 218 225 227 217 218 232 244 230 218 222 217 228 247 250 249 237 240 22 45 29 271 248 251 189 252 232 170 188 204 224 197 94 69 65 83 92 119 130 132 142 152 152
330 325 320 316 312 310 308 305 304 300 294 294 294 292 291 291 288 287 285 282 279 280 281 289 294 303 327 328 283 235 244 239 140 143 157 160 169 173 183 196 204 212 222 237 239 226 213 223 224 218 226 229 239 235 216 217 222 223 250 267 255 221 221 103 94 245 247 249 292 29 254 240 194 210 212 219 204 111 98 105 123 122 124 132 138 147 154 152
330 327 323 318 313 311 308 304 303 299 295 293 292 291 291 287 284 285 281 279 276 277 283 289 294 311 332 314 277 274 221 145 135 149 161 157 165 176 191 199 198 208 224 233 241 239 224 221 225 222 239 253 269 258 217 200 221 216 235 253 230 206 235 179 189 223 221 238 254 229 226 231 226 253 263 236 238 119 115 173 185 150 145 145 145 150 151 152
332 329 325 319 314 312 309 307 304 301 298 294 290 289 288 282 280 281 274 272 268 272 282 289 300 320 312 272 266 285 105 123 141 155 159 163 175 185 203 214 204 209 232 237 233 241 241 246 255 249 255 270 282 273 223 193 228 239 236 250 243 234 234 189 219 227 210 230 231 223 234 236 228 221 225 240 246 165 135 197 200 177 173 153 147 152 149 153
336 330 324 321 317 314 312 308 305 302 300 297 292 286 284 279 274 271 264 261 261 269 278 288 304 318 297 276 269 266 121 140 156 160 167 172 185 197 211 221 213 223 246 249 230 238 257 281 296 287 272 286 277 266 239 217 244 271 254 259 237 238 231 190 232 230 203 225 218 225 247 245 233 210 214 238 233 181 159 206 198 186 189 161 152 151 153 157
337 331 328 325 320 316 314 310 308 304 301 297 292 287 282 275 268 263 257 255 256 264 275 287 309 318 298 276 257 247 127 163 171 168 179 186 201 214 226 223 225 247 265 269 253 248 262 286 295 275 276 326 282 268 241 226 249 258 256 264 234 221 223 216 227 218 206 220 194 215 255 247 240 220 215 235 216 152 172 215 205 189 187 173 154 149 165 158
340 337 333 329 326 323 320 316 312 307 303 297 293 286 279 271 263 258 254 253 255 265 278 288 304 298 284 276 233 201 167 188 183 184 191 198 215 221 231 231 237 259 270 279 297 318 282 275 280 274 278 276 275 345 346 224 232 251 242 245 245 224 219 218 215 210 209 198 153 179 253 239 237 224 216 213 163 155 201 217 212 197 185 181 156 154 172 155
344 340 336 332 326 322 319 316 312 308 302 296 288 280 275 269 261 254 250 253 255 263 272 283 296 280 260 268 203 173 195 200 189 207 206 207 222 220 216 226 242 254 255 268 296 309 278 272 269 271 277 266 284 6 278 238 218 247 240 228 245 244 237 215 198 203 200 161 150 193 257 256 255 239 215 192 163 178 210 219 218 202 188 186 158 163 176 155
345 342 337 328 323 323 322 320 318 316 310 300 289 279 271 262 255 246 244 249 250 257 271 282 267 238 261 255 194 173 203 210 211 213 209 208 219 220 210 218 234 237 250 262 276 281 264 266 260 254 257 246 265 283 250 239 218 233 238 230 227 237 268 228 181 186 192 168 179 210 252 251 266 261 194 154 160 188 210 218 216 202 192 187 161 173 184 156
347 344 336 332 331 330 329 329 329 327 324 314 305 292 270 256 248 240 245 245 246 255 264 271 228 213 276 304 144 178 205 211 216 201 203 214 216 221 207 208 225 219 238 249 258 273 250 249 256 264 274 246 232 255 251 236 219 216 230 246 236 225 259 218 160 179 197 188 191 205 245 258 271 325 118 133 169 189 213 214 205 205 190 183 171 174 191 163
349 342 338 338 336 336 336 337 338 338 337 333 337 320 264 245 234 231 242 242 257 260 244 262 246 219 257 313 166 207 197 181 179 181 198 217 226 239 211 198 221 214 221 232 240 254 229 228 252 255 272 261 236 247 244 234 223 209 212 234 253 249 259 206 170 186 199 206 206 199 221 264 278 97 119 146 189 192 220 220 200 201 185 183 188 178 195 181
349 339 337 337 339 341 339 340 342 343 341 346 5 355 285 236 229 234 239 235 251 251 241 254 265 253 241 241 231 198 166 149 165 201 206 207 226 251 229 210 218 209 215 222 218 227 211 206 236 238 234 233 241 241 232 241 259 274 248 231 243 248 262 264 216 180 188 206 222 218 221 244 264 250 158 163 191 209 220 224 210 198 188 187 197 196 203 194
343 337 333 331 339 340 337 339 339 338 339 350 6 354 325 216 233 244 230 218 195 227 260 213 214 264 63 188 184 105 118 138 179 212 204 196 210 231 230 228 231 216 216 210 195 202 203 207 227 243 234 224 226 225 236 301 343 336 326 303 277 242 236 256 176 150 176 202 215 235 247 245 254 262 233 177 180 211 220 224 225 202 191 188 201 212 212 205
341 337 327 323 333 336 335 334 328 329 328 330 334 312 286 235 246 221 207 213 217 247 297 165 192 245 307 154 132 107 133 175 202 211 202 193 197 214 220 224 231 224 228 226 190 186 208 221 223 229 231 342 276 237 249 359 353 335 324 309 307 289 255 274 104 119 147 229 224 233 251 260 260 262 261 214 175 190 217 221 224 218 205 195 205 210 212 221
342 335 322 316 321 327 326 319 324 322 315 322 316 269 303 8 341 340 202 230 228 238 267 227 212 262 307 96 123 155 192 195 208 205 184 185 199 209 196 202 220 210 228 232 192 130 221 244 245 238 229 49 13 322 7 7 344 330 316 298 302 299 289 296 109 109 95 148 253 266 268 272 272 265 264 250 204 189 202 216 219 222 224 215 214 213 211 215
341 333 319 305 303 315 315 309 311 306 307 313 280 255 330 19 348 328 338 275 237 218 241 252 251 262 267 301 259 230 235 207 197 183 163 183 207 208 177 189 220 210 215 225 204 166 216 239 246 245 42 73 38 0 357 353 339 324 308 290 290 286 283 264 168 144 140 163 252 270 273 273 270 264 257 251 241 205 186 201 219 225 231 231 221 220 221 219
334 328 314 295 291 298 296 295 292 293 296 282 255 269 344 5 341 323 300 282 253 194 218 219 225 224 199 228 227 210 236 227 192 168 162 195 215 221 210 202 224 228 214 203 200 235 244 237 219 156 79 236 260 345 339 340 319 290 283 277 273 259 268 267 158 112 45 318 287 281 279 274 268 264 255 242 247 247 195 187 199 219 233 242 235 230 225 221
328 324 311 293 284 281 284 290 281 273 267 260 262 360 360 348 344 337 308 280 260 194 215 216 230 229 163 141 199 204 237 263 214 159 158 200 218 217 235 236 236 240 236 209 191 230 262 162 127 135 146 249 265 278 288 300 274 257 248 255 268 260 277 305 57 75 345 278 257 264 276 269 257 252 248 236 229 245 243 212 202 206 218 235 241 244 236 221
324 318 309 294 279 275 289 290 270 252 248 257 331 28 349 347 357 345 325 277 252 184 164 210 235 237 94 108 214 221 250 266 97 129 154 204 237 223 235 250 250 242 246 236 216 238 253 133 124 181 190 217 250 250 234 230 258 263 240 234 246 256 281 312 302 282 292 270 227 223 255 271 259 244 230 224 220 225 234 235 229 215 212 221 226 235 237 228
324 316 309 295 279 282 293 297 292 278 264 300 32 9 342 357 360 340 305 253 214 155 154 184 197 167 139 192 207 230 260 229 145 119 154 213 258 282 267 238 226 248 258 261 252 243 183 135 165 236 200 211 242 240 233 229 241 259 257 245 235 234 252 286 292 283 274 286 188 175 233 282 288 273 233 210 214 220 217 222 233 232 225 224 221 221 219 219
325 317 304 289 285 294 300 314 319 314 312 21 13 345 350 1 347 338 296 241 179 183 166 158 157 176 165 166 207 226 297 135 131 135 170 210 233 240 258 247 226 240 257 279 269 251 148 159 183 228 223 227 245 244 234 237 250 254 317 291 262 237 237 255 273 268 260 280 192 179 229 266 278 288 277 242 214 208 206 210 221 231 239 241 232 220 212 210
326 320 300 290 302 300 299 306 310 325 359 4 348 337 353 351 331 310 275 295 149 207 185 119 100 181 193 174 228 247 42 115 171 173 162 168 222 210 222 252 258 247 242 247 244 311 332 210 188 218 237 238 248 245 229 219 238 249 214 267 270 263 257 247 253 253 247 260 244 221 234 247 249 258 266 259 231 195 192 211 218 219 230 244 240 228 222 210
332 327 300 304 310 285 287 295 300 334 354 343 339 340 334 324 310 272 260 320 158 202 328 91 132 193 211 189 210 242 244 205 200 148 150 162 223 236 247 260 267 273 276 261 230 235 263 224 205 232 235 239 241 242 242 218 214 278 320 263 266 270 269 249 246 254 248 247 251 249 247 253 264 255 247 244 228 199 202 219 218 208 214 232 230 220 225 211
345 349 44 282 294 292 282 258 269 331 345 335 335 331 309 288 276 262 271 296 228 170 113 186 172 178 206 203 192 204 224 217 183 172 198 193 205 227 264 274 270 277 281 267 243 257 256 207 196 243 236 241 242 247 268 226 188 238 321 257 250 247 245 240 240 252 259 253 248 250 251 253 259 262 263 255 206 195 223 243 219 199 203 216 216 203 210 208
2 3 29 269 294 317 297 269 329 345 342 333 327 316 289 262 244 270 280 242 230 145 156 220 209 173 213 227 206 193 217 227 200 183 205 219 197 202 235 244 245 267 267 250 235 246 251 225 196 231 240 251 253 255 268 223 197 224 238 246 253 236 223 228 233 235 246 255 251 249 244 242 249 243 257 296 74 152 191 298 277 223 201 198 203 201 200 205
41 45 27 315 315 334 313 325 347 338 327 326 320 299 279 271 250 274 309 173 205 279 300 262 262 249 254 267 250 221 225 229 215 204 209 215 203 195 214 219 203 220 235 235 232 229 236 234 220 210 214 231 247 251 242 219 215 236 237 237 250 248 228 224 228 226 238 243 243 253 251 245 257 243 249 287 305 194 191 224 286 280 224 186 192 198 189 199
53 49 33 31 354 317 310 322 328 325 326 321 306 276 278 289 289 318 324 300 261 346 324 293 268 269 277 282 264 240 241 250 234 225 223 231 232 206 205 219 223 236 245 244 263 247 231 233 230 221 203 206 226 240 233 216 201 211 232 236 239 249 248 242 238 232 242 240 232 251 264 266 276 252 243 265 271 257 227 202 239 279 262 189 193 202 189 196
45 11 42 49 1 293 304 320 314 325 327 311 287 273 274 282 290 291 292 320 20 311 278 278 265 262 260 260 261 257 252 245 238 239 236 243 259 248 227 231 232 245 265 273 279 270 260 247 225 233 214 186 206 235 258 266 237 210 220 233 243 256 261 261 261 258 270 285 239 236 246 247 269 272 256 268 279 283 264 214 199 246 268 229 206 216 204 198
306 341 264 214 211 275 308 317 310 321 320 301 285 278 271 278 285 290 331 347 352 328 312 319 298 271 258 251 254 253 232 233 239 245 250 247 252 255 249 250 250 258 272 272 266 267 268 263 234 240 234 197 203 226 248 266 268 248 234 234 242 258 268 273 280 284 295 306 282 250 230 221 239 256 260 275 281 280 283 271 219 211 242 249 224 229 230 220
272 275 258 250 230 328 313 308 310 315 308 298 291 280 286 319 314 330 14 350 325 327 322 311 290 269 266 260 253 225 152 223 272 255 246 255 251 244 239 234 233 240 252 260 260 266 267 270 276 265 239 212 227 241 244 249 257 275 269 256 247 246 259 276 286 285 283 279 274 267 261 253 247 243 239 251 261 259 259 261 250 218 212 228 227 216 229 246
278 267 250 301 15 358 317 316 320 312 297 290 288 287 303 328 340 348 9 352 320 314 306 292 292 289 288 289 277 241 160 205 278 269 252 257 256 256 254 244 226 219 230 250 268 286 286 280 285 280 261 224 225 246 255 253 251 254 258 266 265 254 256 264 266 265 257 258 260 245 246 251 255 254 240 241 249 262 264 251 258 267 223 223 232 215 219 234
291 280 229 13 7 352 325 321 314 301 287 283 272 265 282 302 12 14 359 351 317 301 299 286 288 300 301 303 294 286 253 200 241 261 263 261 264 287 286 273 265 244 250 267 279 288 290 280 272 273 276 266 238 243 251 249 254 266 275 284 279 262 256 244 241 251 251 255 260 251 249 249 254 262 264 257 249 269 289 277 268 280 262 236 234 223 229 230
286 279 201 26 358 350 328 311 301 288 275 283 277 261 287 301 354 28 355 340 317 299 295 285 288 301 302 301 294 295 296 281 270 273 267 261 263 281 291 283 261 238 268 283 282 278 282 281 272 266 277 286 278 262 260 255 256 263 267 268 263 263 267 260 256 257 250 251 259 263 261 258 259 255 255 266 268 266 279 289 271 272 270 274 275 250 245 245
271 268 131 22 351 345 328 297 279 276 262 271 286 300 330 326 344 14 13 341 321 303 294 298 306 308 301 298 292 293 298 292 286 281 277 289 282 217 204 297 241 219 229 244 264 285 280 270 275 274 276 280 269 254 255 253 248 250 256 260 259 264 278 277 267 260 260 263 266 267 264 258 265 273 269 278 302 299 282 289 275 261 251 262 279 276 261 264
277 279 82 21 349 338 318 279 255 275 282 284 304 318 345 360 329 318 314 257 279 284 288 294 297 298 299 297 294 289 286 284 282 276 272 280 278 262 91 62 317 257 246 241 250 279 283 271 277 278 273 265 258 262 268 267 265 265 266 266 263 258 268 274 263 257 263 269 271 272 269 263 271 305 311 311 331 337 334 332 313 298 293 270 268 273 257 235
271 309 70 27 355 334 302 279 259 262 278 304 342 327 337 359 304 300 304 278 264 275 281 282 282 288 290 285 288 289 285 282 280 279 278 274 279 300 56 69 33 312 295 273 273 27 16 289 279 275 271 270 271 275 278 278 278 275 268 265 267 263 257 256 260 268 269 270 277 278 272 269 270 290 306 315 325 339 353 350 332 329 343 345 341 333 315 265
292 6 89 68 6 329 289 286 291 290 304 348 349 315 313 317 294 296 300 284 279 287 288 290 292 290 286 286 289 289 290 294 286 286 290 284 291 53 70 44 21 329 296 283 296 24 20 274 265 274 274 273 274 271 265 262 264 267 266 263 262 262 263 264 274 287 279 268 272 272 265 261 260 286 308 318 321 322 327 330 323 326 342 346 0 5 337 319
325 327 155 115 23 324 294 313 330 327 333 334 323 312 308 295 281 285 293 298 312 312 299 298 299 292 286 289 289 286 288 290 283 284 283 278 284 85 70 14 20 296 302 341 342 11 336 270 266 277 278 276 272 264 255 251 259 278 287 283 279 278 280 283 290 295 279 263 262 262 264 265 284 317 317 315 318 312 303 305 308 307 313 321 331 352 334 327
309 282 240 17 357 325 304 347 339 324 325 322 317 314 307 295 278 258 285 302 303 293 287 286 290 290 289 286 283 281 279 276 275 277 278 278 277 264 250 207 257 277 37 57 32 358 298 278 278 270 267 271 265 259 277 314 328 318 304 298 295 290 286 284 282 274 264 263 264 265 268 273 291 307 302 298 304 303 300 304 305 301 306 310 309 309 300 312
314 303 343 347 333 310 258 44 330 314 323 329 325 311 302 300 299 238 201 291 291 284 287 288 289 288 286 286 285 282 278 276 277 271 268 269 270 271 225 156 240 230 96 77 41 358 294 280 274 267 263 267 270 280 304 320 312 294 288 286 283 281 280 277 269 264 267 271 268 264 269 277 285 293 291 288 290 292 295 300 301 303 308 308 304 298 281 259
324 334 359 350 322 305 302 328 340 335 326 323 308 298 297 301 305 292 148 227 292 303 297 289 286 279 274 277 281 284 284 283 282 279 276 271 268 270 262 246 238 156 129 146 254 241 275 269 261 264 264 266 271 279 289 293 288 283 284 281 277 276 275 272 268 270 276 276 271 269 275 279 282 285 283 282 285 290 295 298 300 304 302 299 299 295 286 274
351 345 21 9 312 310 328 334 338 328 311 301 285 289 293 293 295 289 242 253 270 288 297 284 279 281 281 277 266 260 268 277 283 285 283 281 277 278 279 278 276 163 143 220 245 221 254 259 255 261 262 263 268 272 277 280 277 275 274 271 269 267 267 270 274 278 279 274 271 276 278 276 275 275 275 278 284 290 296 298 298 296 291 288 285 282 282 278
2 341 16 29 310 296 303 316 322 312 300 294 291 295 294 290 290 290 290 286 278 290 304 291 282 283 280 278 276 267 264 273 287 291 291 290 283 285 292 290 290 276 193 232 245 230 243 254 253 260 266 267 267 270 276 279 278 275 272 268 266 267 272 275 275 276 275 271 270 273 273 270 267 268 273 281 289 292 294 293 288 285 283 283 282 279 278 278
0 349 351 341 308 297 290 284 290 293 292 283 263 265 270 276 295 304 302 306 308 302 293 285 287 291 289 290 295 289 290 321 342 318 307 302 286 278 288 290 287 279 260 257 258 231 217 246 258 263 270 270 270 275 277 276 278 276 270 267 269 275 278 276 274 273 271 271 276 279 276 270 269 274 280 285 289 290 289 287 286 285 283 283 284 280 277 280
346 346 338 312 306 315 307 288 280 281 289 288 270 279 292 299 308 309 310 321 319 301 290 295 305 313 310 307 304 298 320 357 355 319 307 301 285 274 272 267 268 269 266 272 276 254 233 250 262 265 269 270 273 276 274 275 277 272 266 266 270 272 271 270 272 273 271 275 281 283 278 274 281 290 289 287 289 290 289 291 295 299 300 300 297 294 294 297
349 344 342 316 298 305 301 293 287 277 290 336 334 317 321 322 315 308 305 308 295 285 294 310 312 307 297 300 305 313 334 344 330 313 310 298 285 279 272 268 269 271 271 274 278 270 260 258 257 258 264 270 271 273 277 283 278 268 267 273 269 265 269 270 268 268 269 273 274 274 275 282 290 292 288 287 287 286 289 301 311 314 316 317 315 313 312 312
Height
796 796 795 794 793 793 792 792 791 791 790 790 789 789 788 788 787 787 787 786 786 786 786 785 785 785 784 783 782 781 780 779 778 776 774 770 769 769 769 769 770 771 772 772 772 772 769 768 767 767 766 765 764 762 759 755 752 757 765 774 774 768 758 747 740 736 734 735 740 739 736 742 747 745 739 741 746 750 753 753 754 755 755 757 759 763 767 772
796 795 794 793 793 792 792 791 791 790 789 789 788 788 787 787 787 787 786 786 786 786 785 785 785 784 783 783 782 781 780 779 777 773 769 767 768 768 768 769 769 770 771 771 771 769 767 766 764 764 765 765 762 759 759 754 753 760 765 771 770 759 747 735 732 732 732 737 740 738 739 741 743 744 743 751 755 752 758 759 758 761 761 762 763 767 770 772
795 794 793 793 792 791 791 790 790 789 789 788 788 787 787 787 786 786 786 786 785 785 785 785 784 784 783 782 782 782 781 779 775 768 765 766 766 767 767 768 768 768 770 770 769 767 765 762 761 762 764 765 759 757 759 754 754 759 762 769 762 749 741 731 730 736 736 736 739 740 740 741 741 741 745 753 754 754 760 759 760 765 765 764 765 768 771 773
795 794 793 792 792 791 790 789 789 788 788 787 786 786 786 786 786 786 785 785 785 785 784 784 784 783 783 782 782 782 781 779 770 761 762 764 765 766 766 767 767 768 769 769 768 766 763 760 758 759 762 764 757 754 756 753 754 756 759 764 751 741 742 734 731 736 737 737 740 743 744 743 740 739 745 751 754 757 756 751 754 760 761 763 765 767 771 773
794 793 792 791 791 790 789 789 788 787 787 786 786 785 785 785 785 785 784 784 784 784 784 784 783 783 782 782 782 782 782 780 767 759 763 764 765 766 766 766 767 768 769 769 768 765 762 759 756 758 762 762 757 754 755 748 749 754 754 753 744 740 744 738 734 737 738 740 742 745 748 744 740 741 745 749 754 756 749 742 744 748 752 759 764 768 771 773
794 792 792 791 790 790 789 788 787 787 786 785 785 785 784 784 784 784 784 784 783 783 783 783 783 782 782 782 782 782 783 776 763 761 764 763 765 765 765 766 766 768 768 769 766 763 761 758 758 761 762 761 758 754 752 745 745 755 752 746 743 742 745 743 741 743 743 745 746 746 745 741 744 748 746 747 750 748 744 739 740 743 748 757 763 768 771 773
793 792 791 790 789 789 788 787 787 786 785 785 785 784 784 783 783 783 783 783 783 783 783 782 782 782 781 781 781 781 780 769 758 761 763 763 765 764 765 766 766 767 767 767 764 760 759 759 760 759 760 761 757 751 748 744 743 753 753 745 742 741 743 745 746 748 748 748 745 743 744 743 749 752 747 747 746 744 744 743 744 746 750 758 764 768 771 772
792 791 790 789 788 788 787 787 786 785 785 784 784 783 783 783 782 782 782 782 782 782 782 782 782 781 781 781 779 777 773 764 758 761 762 763 764 764 765 764 765 766 766 765 760 757 756 759 758 755 759 757 750 746 743 745 747 750 753 746 741 742 743 745 749 751 749 747 744 746 750 749 749 748 748 748 744 742 746 747 748 750 753 760 765 768 770 772
792 790 789 789 788 787 786 785 785 784 784 783 783 783 782 782 782 782 782 782 782 782 782 782 781 781 782 780 778 774 764 758 759 761 762 763 764 764 764 764 765 765 764 762 757 755 755 756 754 751 755 750 745 743 739 748 752 748 749 745 742 746 744 745 750 751 751 749 747 753 757 752 746 748 753 749 742 742 746 750 750 751 756 760 765 768 769 772
791 790 789 788 787 786 785 785 784 784 783 783 782 782 782 781 781 782 782 782 782 782 781 782 781 781 782 779 778 774 761 756 761 761 762 763 763 764 763 763 763 762 760 757 754 754 752 751 748 744 748 747 746 744 741 748 749 743 745 743 743 748 745 747 751 750 750 750 749 756 759 753 746 752 761 752 743 743 748 752 751 753 757 759 764 767 769 772
790 789 788 787 786 786 785 784 784 783 783 782 782 781 781 781 781 781 781 782 781 782 781 781 781 781 781 778 777 771 759 758 761 760 762 762 762 763 761 761 760 760 757 754 752 751 750 749 745 745 749 749 747 746 742 742 743 743 745 746 746 748 747 749 752 749 751 753 750 754 757 753 748 754 759 751 742 744 751 754 752 754 757 758 762 766 769 771
790 789 788 787 786 785 784 784 783 783 782 781 781 780 780 780 780 781 781 781 781 781 781 781 782 781 780 777 772 765 758 759 760 760 762 761 762 761 760 760 759 759 756 753 751 749 750 749 748 752 751 749 750 750 744 738 742 746 747 753 752 750 753 752 751 750 752 754 748 752 763 761 754 754 752 746 742 745 752 754 753 755 756 758 761 765 769 770
789 788 787 786 786 785 784 783 783 782 781 781 780 779 780 779 779 780 780 780 781 781 781 781 781 780 782 775 763 759 759 759 759 760 760 761 761 760 760 760 759 759 757 754 752 750 752 751 751 753 748 749 753 749 743 738 745 750 748 755 756 755 757 750 748 749 751 752 746 756 776 769 754 749 745 742 744 750 755 755 754 755 756 758 760 765 768 769
789 788 787 786 785 785 784 783 782 781 780 780 779 779 779 778 779 779 779 780 780 780 780 780 780 780 781 771 757 757 759 758 759 759 759 760 759 759 759 759 759 758 757 756 754 753 754 752 751 752 748 748 748 746 747 745 748 752 752 755 757 763 758 742 743 750 752 752 746 759 779 769 751 743 737 738 744 751 756 756 755 755 756 757 760 764 767 768
789 788 787 786 785 784 783 782 781 780 780 779 778 778 777 778 778 778 779 779 779 780 779 779 779 779 776 765 755 757 758 757 758 757 758 758 757 757 757 758 758 757 757 756 755 754 754 753 753 755 751 745 746 752 755 753 751 753 761 763 758 762 755 737 738 746 752 753 748 760 776 766 750 736 729 736 745 751 755 756 754 755 756 758 760 763 765 767
789 788 787 786 785 784 783 782 781 780 778 777 777 777 776 777 777 777 778 778 778 779 779 779 776 776 773 761 754 756 757 755 754 755 756 756 756 755 754 756 756 756 757 756 755 754 753 753 753 753 751 748 753 758 758 759 758 753 762 767 758 757 755 743 741 742 746 751 750 758 768 761 748 737 734 741 747 750 754 754 754 755 756 757 760 762 764 766
789 788 787 786 786 784 783 782 781 779 778 777 777 776 776 776 776 777 777 778 778 777 778 776 772 774 770 758 755 756 753 752 753 754 755 755 755 753 753 754 754 755 755 754 755 754 753 755 756 755 755 755 755 757 766 772 766 756 757 761 756 752 751 748 747 742 741 749 752 755 762 759 750 744 745 746 747 751 754 754 754 755 756 757 759 762 763 765
789 788 787 786 785 784 783 782 780 779 778 778 777 777 776 776 776 777 777 777 777 778 778 774 772 776 769 756 754 752 749 751 753 753 754 755 755 754 753 753 752 753 755 756 756 755 755 755 757 759 759 760 758 759 772 772 763 760 758 758 757 753 751 748 745 741 742 750 753 755 759 758 751 745 745 747 748 751 753 753 753 753 755 758 759 761 762 763
789 788 787 786 785 785 783 782 781 779 779 778 778 777 776 776 777 776 776 776 776 776 773 769 769 771 762 752 750 749 749 752 753 753 753 753 755 754 753 752 751 753 759 761 759 756 757 759 762 767 765 762 759 757 763 761 757 761 759 757 757 752 749 744 742 741 742 751 756 757 759 755 752 747 743 744 747 751 753 752 752 752 754 757 760 761 761 762
789 788 787 786 785 785 783 783 781 779 779 778 778 778 776 775 774 774 773 772 770 765 760 758 759 758 752 748 748 750 752 753 753 752 752 752 754 754 753 753 754 756 760 761 760 754 754 765 768 767 764 759 756 752 754 756 757 760 760 758 754 750 747 742 745 745 743 753 757 755 757 754 751 748 742 741 744 750 753 753 753 753 753 756 758 760 760 761
788 788 787 786 785 785 784 783 781 780 778 778 778 778 773 770 773 773 770 767 760 755 754 751 751 751 748 746 747 749 752 753 752 749 751 752 751 755 754 754 759 762 760 756 756 754 758 770 767 757 755 755 756 753 754 758 759 761 763 763 758 755 753 746 749 750 747 759 761 754 758 757 751 749 743 740 743 748 751 752 754 753 753 754 755 758 759 759
788 787 786 786 785 784 784 783 782 780 778 777 777 774 769 768 772 770 769 768 757 750 752 750 749 750 748 747 748 748 751 753 752 749 750 751 751 755 754 755 760 761 756 753 757 763 768 770 761 751 751 753 756 757 757 760 762 765 764 765 765 759 755 750 748 748 749 761 764 759 763 761 752 747 744 740 740 742 744 748 751 752 753 753 754 756 757 758
788 786 786 786 784 785 783 782 782 780 778 776 774 771 769 770 770 768 769 770 759 750 749 750 751 750 749 750 748 749 752 750 750 750 748 751 752 752 753 755 757 755 754 755 760 769 771 762 752 751 753 755 758 759 761 764 765 768 767 769 768 760 759 759 754 752 752 759 763 762 765 762 753 748 743 739 738 738 739 743 747 750 752 752 752 753 755 757
787 786 786 784 784 784 782 782 781 779 776 773 771 770 770 771 770 769 769 768 762 751 746 747 746 746 747 748 747 749 752 745 743 746 747 751 751 750 751 751 753 754 751 750 755 763 762 753 748 752 755 757 760 761 764 770 771 768 767 769 767 759 759 761 760 758 758 760 761 765 773 767 755 752 746 738 738 740 739 741 744 746 749 750 750 751 752 754
786 786 785 784 784 782 782 781 778 775 773 770 770 771 771 771 770 771 771 773 768 752 747 748 746 745 744 747 748 746 748 745 742 744 744 748 749 749 751 748 751 756 750 745 750 754 754 750 748 754 756 758 763 764 764 770 776 772 764 761 762 759 758 760 760 762 769 771 759 764 785 777 752 747 746 739 740 742 740 741 742 743 744 747 749 750 750 750
785 785 783 784 783 781 782 779 774 773 770 768 770 771 772 771 771 772 772 779 775 756 752 753 750 750 747 748 747 744 751 748 738 741 744 746 746 748 754 749 749 754 747 744 747 746 748 750 750 755 758 760 764 765 762 763 773 775 761 751 752 754 758 763 763 767 778 776 757 757 782 781 757 744 738 735 738 739 739 740 740 740 740 741 743 745 746 748
785 784 783 783 782 782 781 777 775 772 769 770 772 772 773 771 772 772 776 790 783 756 751 752 750 751 748 746 744 748 761 752 739 743 744 747 746 747 757 753 749 751 744 748 755 746 744 751 754 755 758 763 766 765 760 757 766 771 758 750 750 750 757 763 766 770 771 767 760 755 764 776 771 752 734 731 735 736 736 739 739 738 738 737 737 738 741 744
784 783 783 782 782 782 780 778 777 772 771 773 772 773 773 772 773 772 784 803 783 750 746 748 746 748 745 745 744 747 755 750 750 750 741 746 749 748 758 755 749 748 741 752 764 751 744 751 755 756 761 764 763 758 752 753 762 761 751 750 751 750 754 759 764 768 764 766 774 761 753 770 772 750 735 731 731 732 735 737 736 735 736 736 735 735 737 739
784 783 783 782 782 781 780 780 778 774 774 774 773 775 773 772 774 774 789 797 770 746 747 748 748 748 745 747 748 747 747 747 754 751 740 747 749 747 755 751 747 749 742 746 756 752 746 746 749 753 760 762 756 748 743 746 755 752 747 751 753 752 754 758 764 765 763 771 778 762 751 765 765 745 735 733 731 732 733 730 728 730 733 734 733 734 735 735
784 783 783 782 781 781 780 779 777 776 776 774 775 774 772 773 776 787 801 790 763 749 747 747 748 748 747 750 751 749 747 746 747 747 746 748 747 747 750 746 745 750 747 745 750 749 742 739 744 749 753 753 747 744 741 742 747 749 752 757 758 757 757 760 762 763 773 780 771 756 748 758 765 750 735 731 727 727 728 726 724 725 729 731 731 732 733 734
783 783 783 782 781 781 779 777 777 777 776 775 775 772 773 774 778 796 799 773 758 754 748 747 746 743 746 749 749 748 747 746 743 747 752 750 750 752 752 752 753 756 758 755 753 750 744 744 747 746 746 746 746 746 742 740 743 749 756 761 766 765 762 767 767 768 786 787 766 750 743 749 762 752 733 725 720 721 726 727 726 725 726 728 729 729 730 732
784 783 783 782 782 781 780 778 777 777 776 775 774 771 775 781 784 789 776 757 762 762 750 751 747 743 745 743 745 746 744 744 741 744 750 750 753 753 754 756 756 765 770 762 756 753 749 746 742 742 743 743 749 752 748 745 747 754 759 765 776 777 774 779 779 778 785 778 757 746 741 746 751 740 729 725 721 720 723 725 726 725 723 724 726 727 728 730
784 783 783 782 782 781 780 779 778 778 776 774 775 771 776 790 789 775 761 758 764 757 748 750 747 745 748 747 747 742 740 745 743 743 745 745 749 748 747 746 746 758 763 756 758 760 756 746 738 741 742 740 747 755 756 752 751 758 761 766 778 782 784 786 780 777 775 765 752 743 744 752 749 733 725 724 720 715 715 719 724 724 722 722 723 725 727 729
784 783 783 781 781 781 780 779 778 777 775 774 774 773 782 795 784 764 759 757 753 749 747 747 747 748 749 750 747 738 742 748 741 742 745 745 750 750 746 743 740 746 749 752 759 761 765 761 746 744 742 739 743 747 749 746 746 751 750 756 767 770 777 781 775 772 770 762 755 748 751 761 756 738 723 718 715 712 712 713 717 722 721 721 722 723 726 728
784 783 783 781 781 781 779 780 778 777 777 773 773 778 786 789 774 761 762 756 749 750 748 745 748 753 751 747 741 733 742 749 741 742 747 747 752 752 749 746 741 742 749 759 761 757 764 761 741 735 733 733 741 741 739 744 749 746 738 748 761 758 761 768 767 763 764 768 763 754 753 750 742 731 720 718 718 714 715 713 714 721 722 722 724 724 725 726
784 782 782 780 780 780 779 780 778 777 776 774 778 782 778 772 764 759 760 757 755 756 756 755 753 755 753 746 739 734 740 748 745 746 748 745 745 744 742 742 740 743 750 759 760 757 764 757 735 731 730 729 738 739 735 742 750 747 746 752 749 743 751 766 771 762 764 779 771 757 756 746 736 732 721 720 723 717 717 717 716 720 721 723 725 725 727 727
784 782 781 780 779 780 779 779 778 777 775 775 784 783 770 761 758 756 757 759 759 756 761 767 759 754 755 751 745 740 742 750 751 750 749 746 743 737 734 734 733 738 743 750 755 753 761 762 742 735 737 731 731 737 734 732 738 746 751 747 737 738 746 760 775 774 774 783 770 757 760 755 750 744 724 718 724 721 718 716 716 719 720 723 725 725 727 727
784 781 780 779 779 779 779 779 778 776 774 777 782 778 767 760 756 757 759 761 762 758 763 770 761 753 755 758 755 745 744 753 755 753 751 749 745 737 735 737 734 735 738 744 754 753 757 767 753 737 740 734 727 736 740 731 729 736 738 735 741 757 760 758 770 778 780 783 773 760 756 751 748 741 728 722 723 723 720 718 720 723 722 723 724 724 725 725
784 781 780 780 780 779 778 778 777 775 776 780 781 772 764 760 755 757 762 763 763 764 766 766 760 756 756 760 760 751 748 753 753 753 753 751 749 743 738 741 740 741 742 745 754 754 755 769 765 744 739 739 735 741 747 742 736 736 737 737 742 752 756 754 756 762 770 777 774 766 759 751 738 727 725 724 720 721 723 723 725 725 723 724 724 724 725 724
782 780 779 779 779 779 777 777 776 776 778 778 774 767 762 761 758 757 761 765 766 767 767 765 762 763 762 759 759 756 754 754 752 754 754 749 749 747 740 741 744 745 746 747 753 755 756 768 772 755 744 747 750 746 746 747 745 745 748 750 749 748 749 753 751 747 754 766 768 768 767 753 731 718 718 720 718 719 721 722 725 724 722 723 724 724 725 724
780 779 779 778 779 778 776 778 777 775 775 771 767 766 765 766 766 762 760 763 766 765 764 765 766 767 767 765 763 759 757 758 754 754 755 750 750 750 743 743 746 746 748 750 753 759 763 767 771 766 758 756 751 739 734 736 737 742 748 749 751 753 757 770 771 753 747 757 762 765 769 752 728 719 718 717 718 720 720 723 725 722 722 724 724 724 724 724
780 780 779 778 778 776 776 778 772 768 771 771 769 769 768 768 769 766 762 762 764 763 761 764 766 767 768 767 765 761 759 761 758 755 756 751 747 749 747 745 748 749 753 756 755 759 766 768 772 771 762 755 746 736 734 734 731 736 741 740 744 748 752 769 776 761 752 756 754 758 767 753 728 721 722 720 720 722 724 727 728 725 725 726 726 726 725 725
778 777 777 777 777 775 778 779 771 766 769 768 768 769 767 768 769 767 765 764 764 764 764 766 766 767 768 765 764 764 763 764 763 759 759 754 748 749 749 748 750 752 756 760 760 764 768 770 774 773 761 751 742 734 732 731 732 738 739 735 739 742 742 747 752 753 757 760 757 763 770 752 728 721 723 723 722 723 726 727 728 728 727 726 728 728 728 728
778 776 774 775 775 774 777 780 777 775 774 769 770 771 768 767 768 769 769 767 766 768 770 771 769 768 767 764 765 766 766 770 769 762 760 757 752 751 751 751 755 756 759 764 766 770 774 773 775 779 776 766 757 748 741 736 738 744 743 738 737 737 739 742 744 751 761 760 757 766 769 750 730 726 727 727 728 729 727 726 727 728 727 727 727 728 729 730
781 777 774 773 773 774 776 778 779 781 780 776 778 778 773 769 766 768 771 771 769 770 773 773 770 768 767 765 767 767 765 769 770 765 761 758 753 750 749 752 755 756 760 766 765 768 776 777 777 783 787 782 774 763 754 750 751 752 749 745 742 740 743 748 752 759 765 758 754 762 764 749 735 733 734 732 732 733 731 729 728 727 727 727 727 728 729 729
785 784 783 780 776 773 774 773 776 781 781 783 786 783 778 776 768 765 771 775 772 770 772 772 770 770 771 770 773 773 768 767 767 765 763 761 756 751 749 753 756 757 762 767 766 770 778 779 778 780 781 776 770 760 751 754 760 759 754 749 747 745 745 748 754 759 759 756 756 757 756 751 744 740 738 734 732 735 734 733 731 729 729 728 728 727 727 727
787 789 791 792 787 779 775 774 775 780 781 784 789 785 781 781 776 770 772 775 773 772 775 775 773 775 776 775 778 779 774 770 769 766 763 760 756 751 750 753 754 756 761 764 765 772 782 783 780 779 775 768 764 759 755 757 760 758 756 752 749 747 747 750 755 754 751 757 760 751 747 752 750 743 739 735 733 735 736 735 734 731 730 728 728 728 726 724
791 792 792 796 796 789 785 783 782 784 784 783 784 783 782 784 782 778 775 772 770 772 777 780 777 775 775 774 776 779 778 776 775 772 767 764 760 758 756 755 753 755 760 762 762 768 779 782 778 776 772 765 761 759 757 758 757 754 753 752 749 748 749 751 753 748 748 756 757 748 747 753 750 742 737 734 733 735 735 734 733 731 730 727 726 727 725 722
797 796 792 795 798 793 789 789 788 789 787 784 784 785 785 785 784 780 774 771 773 774 779 785 782 776 773 770 771 775 775 777 781 778 773 770 768 768 769 767 760 757 760 762 760 763 772 776 772 772 769 763 759 758 756 757 756 753 750 746 744 745 747 748 748 745 745 748 746 743 746 747 742 737 733 730 731 732 732 732 731 729 728 725 724 724 723 721
805 805 802 801 799 793 788 788 790 790 786 784 786 786 784 784 784 781 775 774 780 780 781 784 781 775 774 771 771 773 771 774 784 785 780 778 775 773 775 774 767 762 760 760 758 760 769 773 767 768 770 764 758 757 756 757 757 754 748 743 742 746 748 748 746 745 746 746 743 744 748 745 736 730 730 729 728 729 730 730 728 726 724 722 722 720 719 718
812 810 809 808 803 796 791 788 787 788 787 784 783 782 781 782 782 782 780 779 782 784 782 783 782 780 779 777 775 774 771 776 785 784 780 779 776 773 773 772 770 768 764 763 762 761 766 769 765 769 774 767 761 762 759 756 757 754 747 745 747 750 750 748 746 745 745 746 747 748 750 745 735 730 731 731 729 729 730 728 727 726 724 722 722 719 717 716
816 812 810 810 807 800 795 790 785 786 786 784 782 780 782 784 782 783 786 784 781 780 779 780 782 783 784 784 779 775 774 779 782 781 779 778 774 770 770 767 765 767 766 768 768 764 764 766 767 772 775 767 762 762 759 759 762 757 747 744 746 746 745 744 742 740 739 742 746 747 744 739 734 732 733 733 732 731 729 729 730 730 727 726 724 722 720 718